Weather History for Melville Hall, Dominica

Change the Weather History Date:

Monday, September 30, 2013

  Actual Average Record
Temperature  
Mean Temperature 84 °F -  
Max Temperature 89 °F 84 °F 89 °F (2007)
Min Temperature 79 °F 75 °F 73 °F (2000)
Cooling Degree Days 19    
Growing Degree Days 34 (Base 50)    
Moisture  
Dew Point 75 °F    
Average Humidity 69    
Maximum Humidity 79    
Minimum Humidity 54    
Precipitation  
Precipitation 0.00 in 0.44 in - ()
Sea Level Pressure  
Sea Level Pressure 29.99 in    
Wind  
Wind Speed 7 mph ()    
Max Wind Speed 14 mph    
Max Gust Speed -    
Visibility 8.4 miles    
Events      
Averages and records for this station are not official NWS values.
T = Trace of Precipitation, MM = Missing Value Source: Averaged Metar Reports

Daily Weather History Graph

Daily Weather History Graph

Search for Another Location

Airport:

Trip Planner

Search our weather history database for the weather conditions in past years. The results will help you decide how hot, cold, wet, or windy it might be!

Date:

Astronomy

Sep. 30, 2013 Rise Set
Actual Time 5:54 AM AST 5:54 PM AST
Civil Twilight 5:33 AM AST 6:16 PM AST
Nautical Twilight 5:08 AM AST 6:41 PM AST
Astronomical Twilight 4:43 AM AST 7:06 PM AST
Moon 2:03 AM AST (9/30) 2:51 PM AST (9/30)
Length of Visible Light 12h 42m
Length of Day
12h 00m
Waning Crescent, 19% of the Moon is Illuminated
Sep 30
Waning Crescent
Oct 4
New
Oct 11
First Quarter
Oct 18
Full
Oct 26
Last Quarter

Hourly Weather History & Observations

Time (AST) Temp. Heat Index Dew Point Humidity Pressure Visibility Wind Dir Wind Speed Gust Speed Precip Events Conditions
6:00 AM 82.4 °F 89.5 °F 75.2 °F 79% 29.98 in 6.2 mi SE 5.8 mph - N/A   Scattered Clouds
7:00 AM 84.2 °F 90.9 °F 73.4 °F 70% 29.98 in 6.2 mi SE 5.8 mph - N/A   Scattered Clouds
8:00 AM 86 °F - 76 °F 64% 30.02 in 16 mi ESE 5.8 mph - -   Haze
8:00 AM 86.0 °F 95.1 °F 75.2 °F 70% 30.01 in 6.2 mi ESE 5.8 mph - N/A   Mostly Cloudy
9:00 AM 87.8 °F 97.6 °F 75.2 °F 66% 30.01 in 6.2 mi East 11.5 mph - N/A   Scattered Clouds
10:00 AM 87.8 °F 99.7 °F 77.0 °F 70% 30.04 in 6.2 mi East 10.4 mph - N/A   Mostly Cloudy
11:00 AM 86 °F - 76 °F 65% 30.02 in 16 mi East 9.2 mph - -   Haze
11:00 AM 86.0 °F 95.1 °F 75.2 °F 70% 30.01 in 6.2 mi East 9.2 mph - N/A   Mostly Cloudy
12:00 PM 87.8 °F 99.7 °F 77.0 °F 70% 30.01 in 6.2 mi East 11.5 mph - N/A   Scattered Clouds
1:00 PM 89.6 °F 99.8 °F 75.2 °F 62% 29.98 in 6.2 mi ESE 10.4 mph - N/A   Scattered Clouds
2:00 PM 89 °F - 75 °F 54% 29.97 in 16 mi ESE 9.2 mph - -   Haze
2:00 PM 87.8 °F 97.6 °F 75.2 °F 66% 29.95 in 6.2 mi ESE 9.2 mph - N/A   Scattered Clouds
3:00 PM 89.6 °F 99.8 °F 75.2 °F 62% 29.95 in 6.2 mi ESE 8.1 mph - N/A   Mostly Cloudy
4:00 PM 87.8 °F 97.6 °F 75.2 °F 66% 29.95 in 6.2 mi East 9.2 mph - N/A   Scattered Clouds
5:00 PM 86 °F - 75 °F 64% 29.96 in 15 mi East 5.8 mph - -   Haze
5:00 PM 84.2 °F 92.3 °F 75.2 °F 74% 29.95 in 6.2 mi East 5.8 mph - N/A   Mostly Cloudy
6:00 PM 84.2 °F 92.3 °F 75.2 °F 74% 29.95 in 6.2 mi East 10.4 mph - N/A   Scattered Clouds
7:00 PM 84.2 °F 92.3 °F 75.2 °F 74% 29.98 in 6.2 mi East 10.4 mph - N/A   Scattered Clouds
8:00 PM 83 °F - 75 °F 70% 29.99 in 17 mi East 13.8 mph - -   Partly Cloudy
8:00 PM 84.2 °F 92.3 °F 75.2 °F 74% 29.98 in 6.2 mi East 13.8 mph - N/A   Scattered Clouds
9:00 PM 84.2 °F 92.3 °F 75.2 °F 74% 30.01 in 6.2 mi East 11.5 mph - N/A   Mostly Cloudy
10:00 PM 84.2 °F 94.1 °F 77.0 °F 79% 30.01 in 6.2 mi East 11.5 mph - N/A   Mostly Cloudy